Location: Anmer
(52.8333°N, 0.5833°E)
Time: 20:58:11
(UTC+00:00)

SAR-Lupe-2 - Pass Details

Date: 15 May 2026
Orbit: 415 x 427 km, 98.1° (Epoch: 7 June)

Event Time Altitude Azimuth Distance (km) Brightness Sun altitude
Exits shadow 21:50:17 - 89° (E) 1,840 6.2 -13.3°
Reaches altitude 10° 21:52:16 10° 59° (ENE) 1,558 6.2 -13.4°
Drops below altitude 10° 21:52:43 10° 51° (NE) 1,559 6.2 -13.5°
Enters shadow 22:47:27 -71° 166° (SSE) 12,479 10.7 -16.7°
Maximum altitude 23:24:06 86° 74° (ENE) 446 3.3 -17.8°
